Showing default

OPS 1527 (OV3-1), 2150

Orbit data source: Space-Track

OPS 1527 (OV3-1), 2150 is a payload satellite owned by USAF OAR (US) in LEO that was launched on Fri, 22 Apr 1966 UTC via an SCOUT B launch vehicle from the Air Force Western Test Range (AFWTR). Payload-class satellites include a variety of spacecraft equipped with specific instruments for various scientific and technological missions. These include communications satellites like Starlink; space stations such as the ISS; scientific satellites like the Hubble; Earth observation satellites from companies like Planet Labs, Umbra, and HawkEye 360; GPS; miniature CubeSats for education and research; and military/defense satellites.

Loading next visibility...
Identifier
2150, 1966-034A
Orbit
LEO
Country
Flag of USUS
Related business
Manufacturer
Space General
Mission
Civil Science
Bus & Motor
OV3, Unknown motor
Mass
69 kg wet, 69 kg dry
Launch date (UTC)
1966-04-22 (59 years ago)
Launch vehicle
SCOUT B
Launch site
Air Force Western Test Range (AFWTR)
Object type
Payload
Rocket body
Debris
Shape & HBR
Oct Cyl, 0.4 m
Radar Cross Section
0.613 m², Medium (>0.1 m² and < 1m²)

Expand to show TLE details & history
Last TLE update: 12 hours ago

TLE from 12 hours ago
0 OPS 1527 (OV3-1)
1 02150U 66034A   25261.76904355  .00007508  00000-0  40741-3 0  9991
2 02150  82.3748   1.1188 1424482 299.6478  47.0142 12.54461083367739
Epoch: 2025-09-18T18:27Z
TLE epoch observation values (Epoch: 2025-09-18T18:27:25.362Z)
Latitude
-0.0001°
Longitude
86.33722°
Altitude
786.97 km
Speed
7.769 km/s
True Right ascension
00h 04m 28s
True Declination
0° 00' 00"
Sunlit
Object was in full shadow at epoch
Visualization orbit readout
Latitude
Unknown
Longitude
Unknown
Altitude
Unknown
Speed
Unknown
Apparent Right ascension
Unknown
Apparent Declination
Unknown
Sunlit
N/A
Visualization observer readout
Local Sidereal Time
23:06:16
Azimuth
Unknown
Elevation
Unknown
Doppler factor
Unknown
Orbital elements
Apogee altitude
2,557.275 km
Perigee altitude
329.019 km
Semi-major axis
7,821.284 km
Eccentricity
0.14245
Inclination
82.3748°
RAAN
1.1188°
Arg. of periapsis
299.6478°
True anomaly
60.4681°
Mean anomaly
47.0142°
Eccentric anomaly
53.58196°
Mean motion
3.13781 °/min
Orbital period
114.73 mins
BSTAR
0.00040741
Loading maneuver chart data...
Computing Atmospheric mass density...
Loading historical data...
Loading historical data...
Loading historical data...
Loading historical data...
Loading historical data...
Loading historical data...
Loading historical data...
Other satellites on launch #34 in the year 1966 (1966-04-22 UTC)

Documentation

Showing up to 5 results
|